Weather History for Manassas, VA

Change the Weather History Date:

Monday, February 24, 2014

  Actual Average Record
Temperature  
Mean Temperature 35 °F -  
Max Temperature 46 °F 47 °F 59 °F (2012)
Min Temperature 24 °F 25 °F 15 °F (2002)
Degree Days  
Heating Degree Days 30    
Moisture  
Dew Point 23 °F    
Average Humidity 62    
Maximum Humidity 87    
Minimum Humidity 23    
Precipitation  
Precipitation 0.00 in - - ()
Sea Level Pressure  
Sea Level Pressure 30.03 in    
Wind  
Wind Speed 9 mph (NNW)    
Max Wind Speed 26 mph    
Max Gust Speed 34 mph    
Visibility 10 miles    
Events      
Averages and records for this station are not official NWS values.
T = Trace of Precipitation, MM = Missing Value Source: NWS Daily Summary

Daily Weather History Graph

Daily Weather History Graph

Search for Another Location

Airport:

Trip Planner

Search our weather history database for the weather conditions in past years. The results will help you decide how hot, cold, wet, or windy it might be!

Date:

Astronomy

Feb. 24, 2014 Rise Set
Actual Time 6:49 AM EST 5:57 PM EST
Civil Twilight 6:22 AM EST 6:24 PM EST
Nautical Twilight 5:51 AM EST 6:55 PM EST
Astronomical Twilight 5:20 AM EST 7:26 PM EST
Moon 2:44 AM EST (2/24) 12:58 PM EST (2/24)
Length of Visible Light 12h 01m
Length of Day
11h 08m
Waning Crescent, 28% of the Moon is Illuminated
Feb 24
Waning Crescent
Mar 1
New
Mar 8
First Quarter
Mar 16
Full
Mar 23
Last Quarter

Hourly Weather History & Observations

Time (EST) Temp. Windchill Dew Point Humidity Pressure Visibility Wind Dir Wind Speed Gust Speed Precip Events Conditions
12:15 AM 42.8 °F 37.0 °F 37.4 °F 81% 29.94 in 10.0 mi NNW 10.4 mph - N/A   Overcast
12:35 AM 42.8 °F 36.6 °F 37.4 °F 81% 29.94 in 10.0 mi North 11.5 mph 18.4 mph N/A   Overcast
12:55 AM 42.8 °F 37.5 °F 37.4 °F 81% 29.94 in 10.0 mi North 9.2 mph - N/A   Overcast
1:15 AM 42.8 °F 38.0 °F 37.4 °F 81% 29.95 in 10.0 mi NNW 8.1 mph - N/A   Overcast
1:35 AM 41.0 °F 36.4 °F 37.4 °F 87% 29.96 in 10.0 mi NNW 6.9 mph - N/A   Overcast
1:55 AM 41.0 °F 37.1 °F 37.4 °F 87% 29.95 in 10.0 mi NNW 5.8 mph - N/A   Overcast
2:15 AM 42.8 °F 40.1 °F 35.6 °F 76% 29.94 in 10.0 mi North 4.6 mph - N/A   Overcast
2:35 AM 41.0 °F 38.0 °F 35.6 °F 81% 29.95 in 10.0 mi NNW 4.6 mph - N/A   Overcast
2:55 AM 41.0 °F 35.8 °F 35.6 °F 81% 29.94 in 10.0 mi North 8.1 mph - N/A   Overcast
3:15 AM 42.8 °F 37.0 °F 33.8 °F 70% 29.94 in 10.0 mi North 10.4 mph - N/A   Overcast
3:35 AM 41.0 °F 34.3 °F 30.2 °F 65% 29.94 in 10.0 mi NNW 11.5 mph - N/A   Overcast
3:55 AM 39.2 °F 32.5 °F 28.4 °F 65% 29.95 in 10.0 mi NNW 10.4 mph - N/A   Mostly Cloudy
4:15 AM 37.4 °F 30.8 °F 26.6 °F 65% 29.95 in 10.0 mi NNW 9.2 mph - N/A   Partly Cloudy
4:35 AM 37.4 °F 31.4 °F 24.8 °F 60% 29.96 in 10.0 mi North 8.1 mph - N/A   Clear
4:55 AM 37.4 °F 30.8 °F 23.0 °F 56% 29.96 in 10.0 mi NNW 9.2 mph - N/A   Clear
5:15 AM 37.4 °F 30.8 °F 23.0 °F 56% 29.97 in 10.0 mi NNW 9.2 mph - N/A   Clear
5:35 AM 35.6 °F 27.5 °F 24.8 °F 65% 29.98 in 10.0 mi NNW 11.5 mph - N/A   Clear
5:55 AM 35.6 °F 28.0 °F 24.8 °F 65% 29.98 in 10.0 mi NNW 10.4 mph - N/A   Clear
6:15 AM 35.6 °F 29.2 °F 24.8 °F 65% 29.99 in 10.0 mi North 8.1 mph - N/A   Clear
6:35 AM 35.6 °F 31.7 °F 23.0 °F 60% 30.00 in 10.0 mi NNW 4.6 mph - N/A   Clear
6:45 AM 35.6 °F 32.8 °F 21.2 °F 56% 30.00 in 10.0 mi NNE 3.5 mph - N/A   Clear
7:45 AM 35.6 °F 28.0 °F 24.8 °F 65% 30.03 in 10.0 mi North 10.4 mph - N/A   Clear
9:55 AM 39.2 °F 34.2 °F 19.4 °F 45% 30.07 in 10.0 mi NNW 6.9 mph - N/A   Clear
10:45 AM 42.8 °F 35.4 °F 19.4 °F 39% 30.06 in 10.0 mi NW 15.0 mph 19.6 mph N/A   Clear
11:45 AM 44.6 °F 36.6 °F 12.2 °F 27% 30.05 in 10.0 mi NW 19.6 mph 24.2 mph N/A   Clear
12:50 PM 44.6 °F 38.1 °F 12.2 °F 27% 30.02 in 10.0 mi WNW 13.8 mph 29.9 mph N/A   Clear
1:45 PM 46.4 °F 38.7 °F 10.4 °F 23% 30.00 in 10.0 mi NW 20.7 mph 25.3 mph N/A   Clear
2:45 PM 44.6 °F 36.1 °F 10.4 °F 25% 30.02 in 10.0 mi WNW 21.9 mph 27.6 mph N/A   Clear
3:50 PM 44.6 °F 35.3 °F 8.6 °F 23% 30.04 in 10.0 mi NW 26.5 mph 34.5 mph N/A   Clear
4:50 PM 42.8 °F 34.3 °F 8.6 °F 25% 30.06 in 10.0 mi WNW 19.6 mph 25.3 mph N/A   Clear
6:45 PM 35.6 °F - 8.6 °F 33% 30.12 in 10.0 mi Calm Calm - N/A   Clear
7:45 PM 32.0 °F 26.4 °F 14.0 °F 48% 30.14 in 10.0 mi NW 5.8 mph - N/A   Clear
8:55 PM 26.6 °F - 19.4 °F 74% 30.15 in 10.0 mi Calm Calm - N/A   Clear
9:15 PM 28.4 °F - 17.6 °F 64% 30.15 in 10.0 mi Calm Calm - N/A   Clear
9:35 PM 26.6 °F 22.6 °F 17.6 °F 69% 30.15 in 10.0 mi NW 3.5 mph - N/A   Clear
9:55 PM 26.6 °F 20.0 °F 19.4 °F 74% 30.16 in 10.0 mi SSE 5.8 mph - N/A   Clear
10:15 PM 26.6 °F - 19.4 °F 74% 30.15 in 10.0 mi Calm Calm - N/A   Clear
10:35 PM 28.4 °F 24.6 °F 21.2 °F 74% 30.15 in 10.0 mi NE 3.5 mph - N/A   Clear
10:55 PM 24.8 °F - 19.4 °F 80% 30.15 in 10.0 mi Calm Calm - N/A   Clear
11:15 PM 26.6 °F 22.6 °F 21.2 °F 80% 30.14 in 10.0 mi West 3.5 mph - N/A   Clear
11:35 PM 24.8 °F 20.5 °F 19.4 °F 80% 30.15 in 10.0 mi ESE 3.5 mph - N/A   Clear
11:55 PM 24.8 °F - 19.4 °F 80% 30.15 in 10.0 mi Calm Calm - N/A   Clear